Location: Brunsen
(51.8651°N, 9.8610°E)
Time: 16:08:39
(UTC+00:00)

Cosmos 841 Rocket - Pass Details

Date: 23 May 2024
Orbit: 744 x 770 km, 74.0° (Epoch: 23 June)

Event Time Altitude Azimuth Distance (km) Brightness Sun altitude
Rises 00:23:50 0° 335° (NNW) 3,231 7.5 -16.1°
Reaches altitude 10° 00:26:13 10° 337° (NNW) 2,305 6.7 -15.9°
Maximum altitude 00:31:28 78° 64° (ENE) 789 3.6 -15.7°
Enters shadow 00:36:28 11° 151° (SSE) 2,213 5.5 -15.5°
